Weather History for Prescott, AZ

Change the Weather History Date:

Monday, July 9, 2012

  Actual Average Record
Temperature  
Mean Temperature 81 °F 76 °F  
Max Temperature 96 °F 90 °F 102 °F (2003)
Min Temperature 66 °F 61 °F 53 °F (1948)
Degree Days  
Heating Degree Days 0    
Month to date heating degree days  
Since 1 July heating degree days  
Cooling Degree Days 16    
Month to date cooling degree days  
Year to date cooling degree days  
Growing Degree Days 31 (Base 50)    
Moisture  
Dew Point 34 °F    
Average Humidity 18    
Maximum Humidity 32    
Minimum Humidity 9    
Precipitation  
Precipitation 0.00 in 0.05 in 0.64 in (2000)
Month to date precipitation 0.40  
Year to date precipitation 5.33  
Sea Level Pressure  
Sea Level Pressure 29.88 in    
Wind  
Wind Speed 4 mph (SSW)    
Max Wind Speed 12 mph    
Max Gust Speed -    
Visibility 10 miles    
Events      
T = Trace of Precipitation, MM = Missing Value Source: NWS Daily Summary

Daily Weather History Graph

Daily Weather History Graph

Search for Another Location

Airport:

Trip Planner

Search our weather history database for the weather conditions in past years. The results will help you decide how hot, cold, wet, or windy it might be!

Date:

Astronomy

Jul. 09, 2012 Rise Set
Actual Time 5:24 AM MST 7:45 PM MST
Civil Twilight 4:55 AM MST 8:14 PM MST
Nautical Twilight 4:19 AM MST 8:49 PM MST
Astronomical Twilight 3:40 AM MST 9:28 PM MST
Moon 11:22 PM MST (7/9) 11:37 AM MST (7/9)
Length of Visible Light 15h 18m
Length of Day
14h 20m
Waning Gibbous, 63% of the Moon is Illuminated
Jul 9
Waning Gibbous
Jul 10
Last Quarter
Jul 18
New
Jul 26
First Quarter
Aug 1
Full

Hourly Weather History & Observations

Time (MST) Temp. Dew Point Humidity Pressure Visibility Wind Dir Wind Speed Gust Speed Precip Events Conditions
12:53 AM 72.0 °F 37.0 °F 28% 29.89 in 10.0 mi Calm Calm - N/A   Clear
1:53 AM 73.0 °F 34.0 °F 24% 29.88 in 10.0 mi Calm Calm - N/A   Clear
2:53 AM 70.0 °F 37.0 °F 30% 29.89 in 10.0 mi South 8.1 mph - N/A   Clear
3:53 AM 69.1 °F 36.0 °F 30% 29.89 in 10.0 mi South 8.1 mph - N/A   Clear
4:53 AM 68.0 °F 36.0 °F 31% 29.89 in 10.0 mi Calm Calm - N/A   Clear
5:53 AM 66.9 °F 36.0 °F 32% 29.91 in 10.0 mi South 6.9 mph - N/A   Clear
6:53 AM 73.0 °F 39.0 °F 29% 29.92 in 10.0 mi SSW 3.5 mph - N/A   Clear
7:53 AM 80.1 °F 33.1 °F 18% 29.93 in 10.0 mi Calm Calm - N/A   Clear
8:53 AM 84.9 °F 32.0 °F 15% 29.92 in 10.0 mi North 4.6 mph - N/A   Partly Cloudy
9:53 AM 89.1 °F 30.0 °F 12% 29.90 in 10.0 mi Calm Calm - N/A   Partly Cloudy
10:53 AM 93.2 °F 30.2 °F 11% 30.20 in 10.0 mi NNW 11.5 mph - N/A   Clear
11:53 AM 93.9 °F 32.0 °F 11% 29.88 in 10.0 mi West 9.2 mph - N/A   Scattered Clouds
12:53 PM 96.1 °F 30.0 °F 10% 29.86 in 10.0 mi Variable 4.6 mph - N/A   Scattered Clouds
1:53 PM 96.1 °F 28.9 °F 9% 29.83 in 10.0 mi Variable 6.9 mph - N/A   Scattered Clouds
2:53 PM 95.0 °F 30.0 °F 10% 29.82 in 10.0 mi SE 5.8 mph - N/A   Mostly Cloudy
3:53 PM 93.9 °F 32.0 °F 11% 29.81 in 10.0 mi Calm Calm - N/A   Mostly Cloudy
4:53 PM 93.2 °F 32.0 °F 11% 30.10 in 10.0 mi West 6.9 mph - N/A   Mostly Cloudy
5:53 PM 93.9 °F 30.9 °F 11% 29.80 in 10.0 mi WNW 8.1 mph - N/A   Mostly Cloudy
6:53 PM 91.9 °F 34.0 °F 13% 29.80 in 10.0 mi North 4.6 mph - N/A   Mostly Cloudy
7:53 PM 90.0 °F 36.0 °F 15% 29.80 in 10.0 mi NE 8.1 mph - N/A   Clear
8:53 PM 89.1 °F 37.9 °F 16% 29.81 in 10.0 mi SE 10.4 mph - N/A   Clear
9:53 PM 84.0 °F 42.1 °F 23% 29.82 in 10.0 mi SSW 4.6 mph - N/A   Clear
10:53 PM 82.9 °F 33.1 °F 17% 29.81 in 10.0 mi SSW 6.9 mph - N/A   Clear
11:53 PM 77.0 °F 37.0 °F 24% 29.82 in 10.0 mi South 8.1 mph - N/A   Clear